Flag for Netherlands Weather past 2 weeks in Amsterdam, Netherlands

Now
46 °F

Mostly cloudy.


Feels Like: 38 °F
Forecast: 43 / 47 °F
Wind: 22 mph from South

Location: Amsterdam Schiphol Airport

Current Time: Feb 28, 2015 at 6:52:38 PM

Latest Report: Feb 28, 2015 at 6:25 PM


Visibility: N/A

Pressure: 29.77 "Hg

Humidity: 62%

Dew point: 34 °F

Location of AmsterdamLocation

Historic Weather in Amsterdam — Graph

°F

Amsterdam temperature yesterday

Maximum temperature yesterday: 45 °F (at 12:55 PM)
Minimum temperature yesterday: 32 °F (at 10:55 PM)
Average temperature yesterday: 41 °F

Past Weeks' High & Low Weather Summary

 TemperatureHumidityPressure
High48 °F (Feb 13, 5:25 PM)100% (Feb 15, 11:55 PM)30.74 "Hg (Feb 15, 11:55 PM)
Low27 °F (Feb 16, 4:55 AM)50% (Feb 18, 3:25 PM)29.24 "Hg (Feb 23, 3:25 AM)
Average40 °F86%29.91 "Hg
* Reported Feb 13 5:25 PM — Feb 28 5:55 PM, Amsterdam, Weather by CustomWeather, © 2015

Note: Actual official high and low records may vary slightly from our data, if they occured in-between our weather recording intervals... More about our weather records

Advertising

Amsterdam weather history for previous 24 hours

 ConditionsComfort  
Time TempWeatherWind HumidityBarometerVisibility
5:55 PM
Sat, Feb 28
46 °FOvercast.20 mph62%29.80 "HgN/A
5:25 PM46 °FBroken clouds.21 mph62%29.80 "HgN/A
4:55 PM46 °FScattered clouds.21 mph66%29.80 "HgN/A
4:25 PM48 °FPartly sunny.21 mph58%29.83 "HgN/A
3:55 PM48 °FSunny.22 mph62%29.86 "Hg10 mi
3:25 PM48 °FSunny.24 mph58%29.86 "Hg10 mi
2:55 PM48 °FSunny.22 mph62%29.89 "Hg10 mi
2:25 PM48 °FPassing clouds.23 mph58%29.89 "HgN/A
1:55 PM46 °FSunny.21 mph62%29.92 "Hg10 mi
1:25 PM46 °FSunny.21 mph66%29.95 "Hg10 mi
12:55 PM46 °FSunny.20 mph66%29.95 "Hg10 mi
12:25 PM45 °FSunny.18 mph66%29.98 "Hg10 mi
11:55 AM43 °FSunny.18 mph71%29.98 "Hg10 mi
11:25 AM41 °FSunny.16 mph76%29.98 "Hg10 mi
10:55 AM41 °FSunny.17 mph76%29.98 "Hg10 mi
10:25 AM37 °FSunny.14 mph87%30.01 "Hg10 mi
9:55 AM37 °FSunny.15 mph87%30.01 "Hg10 mi
9:25 AM36 °FSunny.15 mph93%30.01 "Hg10 mi
8:55 AM36 °FSunny.13 mph93%30.04 "Hg10 mi
8:25 AM36 °FSunny.13 mph93%30.04 "Hg10 mi
7:55 AM36 °FSunny.12 mph87%30.04 "Hg10 mi
7:25 AM34 °FClear.13 mph93%30.04 "Hg10 mi
6:55 AM34 °FClear.10 mph93%30.04 "Hg10 mi
6:25 AM34 °FClear.10 mph93%30.04 "Hg10 mi
5:55 AM34 °FClear.10 mph93%30.07 "Hg10 mi
5:25 AM34 °FClear.8 mph93%30.07 "Hg10 mi
4:55 AM34 °FClear.9 mph93%30.07 "Hg10 mi
4:25 AM34 °FClear.9 mph93%30.07 "Hg10 mi
3:55 AM34 °FClear.9 mph93%30.07 "Hg10 mi
3:25 AM34 °FClear.9 mph93%30.09 "Hg10 mi
2:55 AM34 °FClear.8 mph93%30.09 "Hg10 mi
2:25 AM32 °FClear.7 mph100%30.09 "Hg10 mi
1:55 AM32 °FClear.9 mph93%30.12 "Hg10 mi
1:25 AM32 °FClear.9 mph93%30.12 "Hg10 mi
12:55 AM34 °FClear.7 mph93%30.09 "Hg10 mi
12:25 AM32 °FClear.8 mph93%30.12 "Hg10 mi
11:55 PM
Fri, Feb 27
32 °FClear.8 mph93%30.12 "Hg10 mi
11:25 PM32 °FClear.8 mph93%30.12 "Hg10 mi
10:55 PM32 °FClear.8 mph93%30.12 "Hg10 mi
10:25 PM34 °FClear.7 mph87%30.12 "Hg10 mi
9:55 PM36 °FPassing clouds.9 mph87%30.15 "HgN/A
9:25 PM36 °FPassing clouds.9 mph87%30.15 "HgN/A
8:55 PM37 °FPassing clouds.8 mph87%30.12 "HgN/A
8:25 PM37 °FPassing clouds.8 mph87%30.12 "HgN/A
7:55 PM37 °FPassing clouds.8 mph81%30.12 "HgN/A
7:25 PM37 °FPassing clouds.8 mph87%30.12 "HgN/A
6:55 PM39 °FPassing clouds.8 mph81%30.12 "HgN/A
6:25 PM39 °FPassing clouds.9 mph81%30.09 "HgN/A
Weather by CustomWeather, © 2015

See weather overviewHow to use our weather pages